M I D A S
Marine Information and Data Acquisition System
Tripno 1249 of the Zeeleeuw from 2007-04-20 07:17:21 to 2007-04-20 08:00:09
Back to CruiseResearch ActivitiesStationsMapUnderway DataData graphs

EquipmentUnitsComments
TimeDGPSUTC
LatitudeDGPSDM.mWGS84
LongitudeDGPSDM.mWGS84
SpeedMeteo Stationm/sRelative wind speed
DirectionMeteo StationdegRelative wind direction
TemperatureMeteo Stationdeg CelciusAir temperature
PressureMeteo StationPaAtmospheric pressure
HumidityMeteo Station%Relative humidity
Missing or incorrect values are displayed as -999
Metereological data collected by the RV Zeeleeuw from 2007-04-20 07:18:22 to 2007-04-20 12:17:08
                                                                                    Next 1000 lines
Time Latitude Longitude Speed Direction Temperature Pressure Humidity
2007-04-20 07:18:32 51°13.581 2°56.129 -999 -999 -999 -999 -999
2007-04-20 07:18:37 51°13.582 2°56.126 -999 -999 -999 -999 -999
2007-04-20 07:18:42 51°13.583 2°56.123 -999 -999 -999 -999 -999
2007-04-20 07:18:47 51°13.584 2°56.119 -999 -999 -999 -999 -999
2007-04-20 07:18:53 51°13.586 2°56.113 -999 -999 -999 -999 -999
2007-04-20 07:18:58 51°13.587 2°56.108 -999 -999 -999 -999 -999
2007-04-20 07:19:03 51°13.589 2°56.102 -999 -999 -999 -999 -999
2007-04-20 07:19:08 51°13.591 2°56.096 -999 -999 -999 -999 -999
2007-04-20 07:19:12 51°13.593 2°56.091 -999 -999 -999 -999 -999
2007-04-20 07:19:18 51°13.596 2°56.083 -999 -999 -999 -999 -999
2007-04-20 07:19:23 51°13.598 2°56.076 -999 -999 -999 -999 -999
2007-04-20 07:19:28 51°13.6 2°56.069 -999 -999 -999 -999 -999
2007-04-20 07:19:32 51°13.601 2°56.064 -999 -999 -999 -999 -999
2007-04-20 07:19:37 51°13.603 2°56.057 -999 -999 -999 -999 -999
2007-04-20 07:19:43 51°13.606 2°56.049 -999 -999 -999 -999 -999
2007-04-20 07:19:48 51°13.608 2°56.042 -999 -999 -999 -999 -999
2007-04-20 07:19:53 51°13.61 2°56.035 -999 -999 -999 -999 -999
2007-04-20 07:19:57 51°13.612 2°56.03 -999 -999 -999 -999 -999
2007-04-20 07:20:03 51°13.614 2°56.021 -999 -999 -999 -999 -999
2007-04-20 07:20:08 51°13.617 2°56.014 -999 -999 -999 -999 -999
2007-04-20 07:20:13 51°13.619 2°56.007 -999 -999 -999 -999 -999
2007-04-20 07:20:18 51°13.622 2°56 -999 -999 -999 -999 -999
2007-04-20 07:20:22 51°13.624 2°55.994 -999 -999 -999 -999 -999
2007-04-20 07:20:28 51°13.627 2°55.985 -999 -999 -999 -999 -999
2007-04-20 07:20:33 51°13.629 2°55.978 -999 -999 -999 -999 -999
2007-04-20 07:20:38 51°13.632 2°55.971 -999 -999 -999 -999 -999
2007-04-20 07:20:42 51°13.634 2°55.965 -999 -999 -999 -999 -999
2007-04-20 07:20:47 51°13.637 2°55.957 -999 -999 -999 -999 -999
2007-04-20 07:20:53 51°13.64 2°55.948 -999 -999 -999 -999 -999
2007-04-20 07:20:58 51°13.643 2°55.941 -999 -999 -999 -999 -999
2007-04-20 07:21:03 51°13.645 2°55.933 -999 -999 -999 -999 -999
2007-04-20 07:21:07 51°13.647 2°55.927 -999 -999 -999 -999 -999
2007-04-20 07:21:13 51°13.651 2°55.918 -999 -999 -999 -999 -999
2007-04-20 07:21:18 51°13.653 2°55.91 -999 -999 -999 -999 -999
2007-04-20 07:21:23 51°13.656 2°55.902 -999 -999 -999 -999 -999
2007-04-20 07:21:28 51°13.659 2°55.895 -999 -999 -999 -999 -999
2007-04-20 07:21:32 51°13.661 2°55.889 -999 -999 -999 -999 -999
2007-04-20 07:21:38 51°13.664 2°55.88 -999 -999 -999 -999 -999
2007-04-20 07:21:43 51°13.667 2°55.873 -999 -999 -999 -999 -999
2007-04-20 07:21:48 51°13.669 2°55.866 -999 -999 -999 -999 -999
2007-04-20 07:21:53 51°13.671 2°55.86 -999 -999 -999 -999 -999
2007-04-20 07:21:58 51°13.674 2°55.853 -999 -999 -999 -999 -999
2007-04-20 07:22:03 51°13.676 2°55.846 -999 -999 -999 -999 -999
2007-04-20 07:22:07 51°13.677 2°55.841 -999 -999 -999 -999 -999
2007-04-20 07:22:12 51°13.679 2°55.835 -999 -999 -999 -999 -999
2007-04-20 07:22:17 51°13.68 2°55.829 -999 -999 -999 -999 -999
2007-04-20 07:22:23 51°13.682 2°55.822 -999 -999 -999 -999 -999
2007-04-20 07:22:28 51°13.683 2°55.817 -999 -999 -999 -999 -999
2007-04-20 07:22:32 51°13.685 2°55.812 -999 -999 -999 -999 -999
2007-04-20 07:22:37 51°13.686 2°55.806 -999 -999 -999 -999 -999
2007-04-20 07:22:42 51°13.687 2°55.801 -999 -999 -999 -999 -999
2007-04-20 07:22:47 51°13.688 2°55.796 -999 -999 -999 -999 -999
2007-04-20 07:22:52 51°13.689 2°55.791 -999 -999 -999 -999 -999
2007-04-20 07:22:57 51°13.689 2°55.786 -999 -999 -999 -999 -999
2007-04-20 07:23:02 51°13.69 2°55.781 -999 -999 -999 -999 -999
2007-04-20 07:23:07 51°13.691 2°55.776 -999 -999 -999 -999 -999
2007-04-20 07:23:12 51°13.692 2°55.772 -999 -999 -999 -999 -999
2007-04-20 07:23:17 51°13.692 2°55.768 -999 -999 -999 -999 -999
2007-04-20 07:23:22 51°13.693 2°55.764 -999 -999 -999 -999 -999
2007-04-20 07:23:27 51°13.693 2°55.761 -999 -999 -999 -999 -999
2007-04-20 07:23:33 51°13.694 2°55.758 -999 -999 -999 -999 -999
2007-04-20 07:23:37 51°13.694 2°55.756 -999 -999 -999 -999 -999
2007-04-20 07:23:43 51°13.694 2°55.753 -999 -999 -999 -999 -999
2007-04-20 07:23:47 51°13.694 2°55.752 -999 -999 -999 -999 -999
2007-04-20 07:23:52 51°13.695 2°55.75 -999 -999 -999 -999 -999
2007-04-20 07:23:58 51°13.695 2°55.748 -999 -999 -999 -999 -999
2007-04-20 07:24:03 51°13.695 2°55.747 -999 -999 -999 -999 -999
2007-04-20 07:24:07 51°13.695 2°55.747 -999 -999 -999 -999 -999
2007-04-20 07:24:12 51°13.696 2°55.747 -999 -999 -999 -999 -999
2007-04-20 07:24:17 51°13.696 2°55.748 -999 -999 -999 -999 -999
2007-04-20 07:24:23 51°13.697 2°55.749 -999 -999 -999 -999 -999
2007-04-20 07:24:28 51°13.697 2°55.751 -999 -999 -999 -999 -999
2007-04-20 07:24:32 51°13.698 2°55.752 -999 -999 -999 -999 -999
2007-04-20 07:24:37 51°13.699 2°55.754 -999 -999 -999 -999 -999
2007-04-20 07:24:43 51°13.701 2°55.757 -999 -999 -999 -999 -999
2007-04-20 07:24:47 51°13.702 2°55.758 -999 -999 -999 -999 -999
2007-04-20 07:24:52 51°13.703 2°55.76 -999 -999 -999 -999 -999
2007-04-20 07:24:57 51°13.705 2°55.762 -999 -999 -999 -999 -999
2007-04-20 07:25:02 51°13.706 2°55.763 -999 -999 -999 -999 -999
2007-04-20 07:25:07 51°13.707 2°55.763 -999 -999 -999 -999 -999
2007-04-20 07:25:12 51°13.707 2°55.763 -999 -999 -999 -999 -999
2007-04-20 07:25:17 51°13.707 2°55.763 -999 -999 -999 -999 -999
2007-04-20 07:25:22 51°13.706 2°55.762 -999 -999 -999 -999 -999
2007-04-20 07:25:27 51°13.706 2°55.761 -999 -999 -999 -999 -999
2007-04-20 07:25:32 51°13.705 2°55.76 -999 -999 -999 -999 -999
2007-04-20 07:25:37 51°13.703 2°55.758 -999 -999 -999 -999 -999
2007-04-20 07:25:42 51°13.702 2°55.756 -999 -999 -999 -999 -999
2007-04-20 07:25:48 51°13.699 2°55.753 -999 -999 -999 -999 -999
2007-04-20 07:25:52 51°13.698 2°55.751 -999 -999 -999 -999 -999
2007-04-20 07:25:58 51°13.695 2°55.749 -999 -999 -999 -999 -999
2007-04-20 07:26:03 51°13.694 2°55.747 -999 -999 -999 -999 -999
2007-04-20 07:26:08 51°13.692 2°55.745 -999 -999 -999 -999 -999
2007-04-20 07:26:12 51°13.692 2°55.744 -999 -999 -999 -999 -999
2007-04-20 07:26:18 51°13.691 2°55.743 -999 -999 -999 -999 -999
2007-04-20 07:26:23 51°13.691 2°55.742 -999 -999 -999 -999 -999
2007-04-20 07:26:28 51°13.692 2°55.741 -999 -999 -999 -999 -999
2007-04-20 07:26:33 51°13.692 2°55.741 -999 -999 -999 -999 -999
2007-04-20 07:26:37 51°13.693 2°55.74 -999 -999 -999 -999 -999
2007-04-20 07:26:43 51°13.694 2°55.739 -999 -999 -999 -999 -999
2007-04-20 07:26:48 51°13.695 2°55.738 -999 -999 -999 -999 -999
2007-04-20 07:26:53 51°13.696 2°55.737 -999 -999 -999 -999 -999
2007-04-20 07:26:58 51°13.698 2°55.736 -999 -999 -999 -999 -999
2007-04-20 07:27:03 51°13.7 2°55.734 -999 -999 -999 -999 -999
2007-04-20 07:27:08 51°13.702 2°55.732 -999 -999 -999 -999 -999
2007-04-20 07:27:13 51°13.704 2°55.73 -999 -999 -999 -999 -999
2007-04-20 07:27:17 51°13.707 2°55.727 -999 -999 -999 -999 -999
2007-04-20 07:27:22 51°13.71 2°55.724 -999 -999 -999 -999 -999
2007-04-20 07:27:28 51°13.715 2°55.719 -999 -999 -999 -999 -999
2007-04-20 07:27:32 51°13.719 2°55.716 -999 -999 -999 -999 -999
2007-04-20 07:27:37 51°13.723 2°55.712 -999 -999 -999 -999 -999
2007-04-20 07:27:42 51°13.729 2°55.707 -999 -999 -999 -999 -999
2007-04-20 07:27:47 51°13.734 2°55.703 -999 -999 -999 -999 -999
2007-04-20 07:27:52 51°13.74 2°55.699 -999 -999 -999 -999 -999
2007-04-20 07:27:57 51°13.747 2°55.694 -999 -999 -999 -999 -999
2007-04-20 07:28:03 51°13.755 2°55.688 -999 -999 -999 -999 -999
2007-04-20 07:28:07 51°13.76 2°55.684 -999 -999 -999 -999 -999
2007-04-20 07:28:12 51°13.768 2°55.679 -999 -999 -999 -999 -999
2007-04-20 07:28:17 51°13.775 2°55.673 -999 -999 -999 -999 -999
2007-04-20 07:28:23 51°13.784 2°55.667 -999 -999 -999 -999 -999
2007-04-20 07:28:27 51°13.791 2°55.663 -999 -999 -999 -999 -999
2007-04-20 07:28:32 51°13.798 2°55.658 -999 -999 -999 -999 -999
2007-04-20 07:28:37 51°13.806 2°55.653 -999 -999 -999 -999 -999
2007-04-20 07:28:43 51°13.814 2°55.646 -999 -999 -999 -999 -999
2007-04-20 07:28:47 51°13.82 2°55.642 -999 -999 -999 -999 -999
2007-04-20 07:28:52 51°13.827 2°55.636 -999 -999 -999 -999 -999
2007-04-20 07:28:57 51°13.834 2°55.63 -999 -999 -999 -999 -999
2007-04-20 07:29:03 51°13.843 2°55.623 -999 -999 -999 -999 -999
2007-04-20 07:29:07 51°13.848 2°55.617 -999 -999 -999 -999 -999
2007-04-20 07:29:12 51°13.856 2°55.612 -999 -999 -999 -999 -999
2007-04-20 07:29:18 51°13.865 2°55.605 -999 -999 -999 -999 -999
2007-04-20 07:29:22 51°13.871 2°55.601 -999 -999 -999 -999 -999
2007-04-20 07:29:27 51°13.882 2°55.597 -999 -999 -999 -999 -999
2007-04-20 07:29:32 51°13.89 2°55.592 -999 -999 -999 -999 -999
2007-04-20 07:29:37 51°13.899 2°55.585 -999 -999 -999 -999 -999
2007-04-20 07:29:42 51°13.907 2°55.578 -999 -999 -999 -999 -999
2007-04-20 07:29:48 51°13.918 2°55.57 -999 -999 -999 -999 -999
2007-04-20 07:29:53 51°13.928 2°55.563 -999 -999 -999 -999 -999
2007-04-20 07:29:57 51°13.935 2°55.556 -999 -999 -999 -999 -999
2007-04-20 07:30:03 51°13.947 2°55.547 -999 -999 -999 -999 -999
2007-04-20 07:30:07 51°13.956 2°55.541 -999 -999 -999 -999 -999
2007-04-20 07:30:13 51°13.969 2°55.531 -999 -999 -999 -999 -999
2007-04-20 07:30:18 51°13.98 2°55.523 -999 -999 -999 -999 -999
2007-04-20 07:30:23 51°13.992 2°55.515 -999 -999 -999 -999 -999
2007-04-20 07:30:27 51°14.002 2°55.509 -999 -999 -999 -999 -999
2007-04-20 07:30:33 51°14.016 2°55.5 -999 -999 -999 -999 -999
2007-04-20 07:30:37 51°14.025 2°55.493 -999 -999 -999 -999 -999
2007-04-20 07:30:43 51°14.04 2°55.483 -999 -999 -999 -999 -999
2007-04-20 07:30:47 51°14.049 2°55.476 -999 -999 -999 -999 -999
2007-04-20 07:30:52 51°14.061 2°55.467 -999 -999 -999 -999 -999
2007-04-20 07:30:58 51°14.076 2°55.457 -999 -999 -999 -999 -999
2007-04-20 07:31:03 51°14.088 2°55.448 -999 -999 -999 -999 -999
2007-04-20 07:31:08 51°14.1 2°55.438 -999 -999 -999 -999 -999
2007-04-20 07:31:13 51°14.113 2°55.429 -999 -999 -999 -999 -999
2007-04-20 07:31:18 51°14.125 2°55.42 -999 -999 -999 -999 -999
2007-04-20 07:31:23 51°14.137 2°55.41 -999 -999 -999 -999 -999
2007-04-20 07:31:28 51°14.149 2°55.4 -999 -999 -999 -999 -999
2007-04-20 07:31:33 51°14.161 2°55.388 -999 -999 -999 -999 -999
2007-04-20 07:31:38 51°14.173 2°55.377 -999 -999 -999 -999 -999
2007-04-20 07:31:42 51°14.182 2°55.366 -999 -999 -999 -999 -999
2007-04-20 07:31:48 51°14.195 2°55.35 -999 -999 -999 -999 -999
2007-04-20 07:31:53 51°14.206 2°55.336 -999 -999 -999 -999 -999
2007-04-20 07:31:58 51°14.217 2°55.321 -999 -999 -999 -999 -999
2007-04-20 07:32:03 51°14.227 2°55.307 -999 -999 -999 -999 -999
2007-04-20 07:32:07 51°14.235 2°55.294 -999 -999 -999 -999 -999
2007-04-20 07:32:12 51°14.246 2°55.279 -999 -999 -999 -999 -999
2007-04-20 07:32:17 51°14.256 2°55.263 -999 -999 -999 -999 -999
2007-04-20 07:32:22 51°14.266 2°55.246 -999 -999 -999 -999 -999
2007-04-20 07:32:27 51°14.275 2°55.229 -999 -999 -999 -999 -999
2007-04-20 07:32:33 51°14.286 2°55.208 -999 -999 -999 -999 -999
2007-04-20 07:32:37 51°14.294 2°55.193 -999 -999 -999 -999 -999
2007-04-20 07:32:43 51°14.305 2°55.172 -999 -999 -999 -999 -999
2007-04-20 07:32:47 51°14.312 2°55.158 -999 -999 -999 -999 -999
2007-04-20 07:32:52 51°14.322 2°55.14 -999 -999 -999 -999 -999
2007-04-20 07:32:58 51°14.333 2°55.118 -999 -999 -999 -999 -999
2007-04-20 07:33:03 51°14.341 2°55.099 -999 -999 -999 -999 -999
2007-04-20 07:33:07 51°14.348 2°55.083 -999 -999 -999 -999 -999
2007-04-20 07:33:12 51°14.356 2°55.063 -999 -999 -999 -999 -999
2007-04-20 07:33:17 51°14.363 2°55.042 -999 -999 -999 -999 -999
2007-04-20 07:33:23 51°14.37 2°55.016 -999 -999 -999 -999 -999
2007-04-20 07:33:27 51°14.374 2°54.998 -999 -999 -999 -999 -999
2007-04-20 07:33:32 51°14.379 2°54.975 -999 -999 -999 -999 -999
2007-04-20 07:33:37 51°14.383 2°54.952 -999 -999 -999 -999 -999
2007-04-20 07:33:43 51°14.388 2°54.923 -999 -999 -999 -999 -999
2007-04-20 07:33:48 51°14.391 2°54.899 -999 -999 -999 -999 -999
2007-04-20 07:33:52 51°14.393 2°54.88 -999 -999 -999 -999 -999
2007-04-20 07:33:57 51°14.396 2°54.855 -999 -999 -999 -999 -999
2007-04-20 07:34:02 51°14.397 2°54.831 -999 -999 -999 -999 -999
2007-04-20 07:34:07 51°14.398 2°54.806 -999 -999 -999 -999 -999
2007-04-20 07:34:12 51°14.399 2°54.781 -999 -999 -999 -999 -999
2007-04-20 07:34:17 51°14.4 2°54.755 -999 -999 -999 -999 -999
2007-04-20 07:34:22 51°14.4 2°54.73 -999 -999 -999 -999 -999
2007-04-20 07:34:27 51°14.4 2°54.704 -999 -999 -999 -999 -999
2007-04-20 07:34:32 51°14.4 2°54.678 -999 -999 -999 -999 -999
2007-04-20 07:34:37 51°14.4 2°54.653 -999 -999 -999 -999 -999
2007-04-20 07:34:42 51°14.399 2°54.627 -999 -999 -999 -999 -999
2007-04-20 07:34:47 51°14.398 2°54.601 -999 -999 -999 -999 -999
2007-04-20 07:34:53 51°14.395 2°54.57 -999 -999 -999 -999 -999
2007-04-20 07:34:57 51°14.393 2°54.55 -999 -999 -999 -999 -999
2007-04-20 07:35:03 51°14.389 2°54.519 -999 -999 -999 -999 -999
2007-04-20 07:35:07 51°14.386 2°54.499 -999 -999 -999 -999 -999
2007-04-20 07:35:12 51°14.382 2°54.473 -999 -999 -999 -999 -999
2007-04-20 07:35:17 51°14.377 2°54.448 -999 -999 -999 -999 -999
2007-04-20 07:35:23 51°14.37 2°54.419 -999 -999 -999 -999 -999
2007-04-20 07:35:27 51°14.365 2°54.399 -999 -999 -999 -999 -999
2007-04-20 07:35:32 51°14.358 2°54.375 -999 -999 -999 -999 -999
2007-04-20 07:35:37 51°14.351 2°54.351 -999 -999 -999 -999 -999
2007-04-20 07:35:43 51°14.342 2°54.323 -999 -999 -999 -999 -999
2007-04-20 07:35:48 51°14.334 2°54.3 -999 -999 -999 -999 -999
2007-04-20 07:35:52 51°14.328 2°54.281 -999 -999 -999 -999 -999
2007-04-20 07:35:57 51°14.32 2°54.257 -999 -999 -999 -999 -999
2007-04-20 07:36:03 51°14.31 2°54.229 -999 -999 -999 -999 -999
2007-04-20 07:36:08 51°14.302 2°54.205 -999 -999 -999 -999 -999
2007-04-20 07:36:12 51°14.296 2°54.186 -999 -999 -999 -999 -999
2007-04-20 07:36:17 51°14.288 2°54.162 -999 -999 -999 -999 -999
2007-04-20 07:36:22 51°14.28 2°54.138 -999 -999 -999 -999 -999
2007-04-20 07:36:28 51°14.271 2°54.11 -999 -999 -999 -999 -999
2007-04-20 07:36:33 51°14.263 2°54.086 -999 -999 -999 -999 -999
2007-04-20 07:36:37 51°14.257 2°54.067 -999 -999 -999 -999 -999
2007-04-20 07:36:43 51°14.247 2°54.039 -999 -999 -999 -999 -999
2007-04-20 07:36:47 51°14.24 2°54.02 -999 -999 -999 -999 -999
2007-04-20 07:36:52 51°14.231 2°53.997 -999 -999 -999 -999 -999
2007-04-20 07:36:57 51°14.223 2°53.973 -999 -999 -999 -999 -999
2007-04-20 07:37:02 51°14.214 2°53.951 -999 -999 -999 -999 -999
2007-04-20 07:37:07 51°14.205 2°53.928 -999 -999 -999 -999 -999
2007-04-20 07:37:13 51°14.194 2°53.9 -999 -999 -999 -999 -999
2007-04-20 07:37:17 51°14.187 2°53.882 -999 -999 -999 -999 -999
2007-04-20 07:37:23 51°14.175 2°53.855 -999 -999 -999 -999 -999
2007-04-20 07:37:27 51°14.168 2°53.836 -999 -999 -999 -999 -999
2007-04-20 07:37:32 51°14.159 2°53.814 -999 -999 -999 -999 -999
2007-04-20 07:37:37 51°14.15 2°53.79 -999 -999 -999 -999 -999
2007-04-20 07:37:43 51°14.139 2°53.764 -999 -999 -999 -999 -999
2007-04-20 07:37:47 51°14.133 2°53.747 -999 -999 -999 -999 -999
2007-04-20 07:37:52 51°14.124 2°53.726 -999 -999 -999 -999 -999
2007-04-20 07:37:57 51°14.117 2°53.706 -999 -999 -999 -999 -999
2007-04-20 07:38:03 51°14.109 2°53.683 -999 -999 -999 -999 -999
2007-04-20 07:38:07 51°14.104 2°53.668 -999 -999 -999 -999 -999
2007-04-20 07:38:12 51°14.098 2°53.65 -999 -999 -999 -999 -999
2007-04-20 07:38:17 51°14.093 2°53.632 -999 -999 -999 -999 -999
2007-04-20 07:38:22 51°14.087 2°53.615 -999 -999 -999 -999 -999
2007-04-20 07:38:28 51°14.082 2°53.595 -999 -999 -999 -999 -999
2007-04-20 07:38:32 51°14.079 2°53.582 -999 -999 -999 -999 -999
2007-04-20 07:38:37 51°14.075 2°53.566 -999 -999 -999 -999 -999
2007-04-20 07:38:42 51°14.071 2°53.551 -999 -999 -999 -999 -999
2007-04-20 07:38:48 51°14.067 2°53.534 -999 -999 -999 -999 -999
2007-04-20 07:38:52 51°14.064 2°53.523 -999 -999 -999 -999 -999
2007-04-20 07:38:57 51°14.06 2°53.509 -999 -999 -999 -999 -999
2007-04-20 07:39:03 51°14.056 2°53.493 -999 -999 -999 -999 -999
2007-04-20 07:39:07 51°14.053 2°53.483 -999 -999 -999 -999 -999
2007-04-20 07:39:12 51°14.049 2°53.471 -999 -999 -999 -999 -999
2007-04-20 07:39:17 51°14.045 2°53.46 -999 -999 -999 -999 -999
2007-04-20 07:39:22 51°14.041 2°53.448 -999 -999 -999 -999 -999
2007-04-20 07:39:27 51°14.037 2°53.437 -999 -999 -999 -999 -999
2007-04-20 07:39:32 51°14.033 2°53.427 -999 -999 -999 -999 -999
2007-04-20 07:39:37 51°14.029 2°53.416 -999 -999 -999 -999 -999
2007-04-20 07:39:43 51°14.024 2°53.404 -999 -999 -999 -999 -999
2007-04-20 07:39:47 51°14.02 2°53.396 -999 -999 -999 -999 -999
2007-04-20 07:39:52 51°14.016 2°53.387 -999 -999 -999 -999 -999
2007-04-20 07:39:58 51°14.01 2°53.375 -999 -999 -999 -999 -999
2007-04-20 07:40:03 51°14.006 2°53.366 -999 -999 -999 -999 -999
2007-04-20 07:40:07 51°14.002 2°53.359 -999 -999 -999 -999 -999
2007-04-20 07:40:12 51°13.998 2°53.35 -999 -999 -999 -999 -999
2007-04-20 07:40:17 51°13.993 2°53.341 -999 -999 -999 -999 -999
2007-04-20 07:40:23 51°13.988 2°53.33 -999 -999 -999 -999 -999
2007-04-20 07:40:28 51°13.984 2°53.322 -999 -999 -999 -999 -999
2007-04-20 07:40:32 51°13.98 2°53.315 -999 -999 -999 -999 -999
2007-04-20 07:40:37 51°13.976 2°53.306 -999 -999 -999 -999 -999
2007-04-20 07:40:42 51°13.972 2°53.298 -999 -999 -999 -999 -999
2007-04-20 07:40:48 51°13.966 2°53.288 -999 -999 -999 -999 -999
2007-04-20 07:40:52 51°13.963 2°53.281 -999 -999 -999 -999 -999
2007-04-20 07:40:57 51°13.959 2°53.273 -999 -999 -999 -999 -999
2007-04-20 07:41:03 51°13.954 2°53.264 -999 -999 -999 -999 -999
2007-04-20 07:41:07 51°13.95 2°53.257 -999 -999 -999 -999 -999
2007-04-20 07:41:12 51°13.946 2°53.249 -999 -999 -999 -999 -999
2007-04-20 07:41:17 51°13.942 2°53.241 -999 -999 -999 -999 -999
2007-04-20 07:41:22 51°13.938 2°53.233 -999 -999 -999 -999 -999
2007-04-20 07:41:27 51°13.934 2°53.225 -999 -999 -999 -999 -999
2007-04-20 07:41:32 51°13.93 2°53.217 -999 -999 -999 -999 -999
2007-04-20 07:41:37 51°13.926 2°53.21 -999 -999 -999 -999 -999
2007-04-20 07:41:42 51°13.922 2°53.202 -999 -999 -999 -999 -999
2007-04-20 07:41:47 51°13.918 2°53.194 -999 -999 -999 -999 -999
2007-04-20 07:41:53 51°13.913 2°53.185 -999 -999 -999 -999 -999
2007-04-20 07:41:57 51°13.91 2°53.178 -999 -999 -999 -999 -999
2007-04-20 07:42:03 51°13.905 2°53.169 -999 -999 -999 -999 -999
2007-04-20 07:42:07 51°13.902 2°53.163 -999 -999 -999 -999 -999
2007-04-20 07:42:12 51°13.898 2°53.155 -999 -999 -999 -999 -999
2007-04-20 07:42:17 51°13.894 2°53.147 -999 -999 -999 -999 -999
2007-04-20 07:42:23 51°13.89 2°53.138 -999 -999 -999 -999 -999
2007-04-20 07:42:27 51°13.887 2°53.131 -999 -999 -999 -999 -999
2007-04-20 07:42:32 51°13.883 2°53.124 -999 -999 -999 -999 -999
2007-04-20 07:42:37 51°13.88 2°53.116 -999 -999 -999 -999 -999
2007-04-20 07:42:43 51°13.875 2°53.106 -999 -999 -999 -999 -999
2007-04-20 07:42:48 51°13.872 2°53.098 -999 -999 -999 -999 -999
2007-04-20 07:42:52 51°13.869 2°53.092 -999 -999 -999 -999 -999
2007-04-20 07:42:57 51°13.865 2°53.084 -999 -999 -999 -999 -999
2007-04-20 07:43:02 51°13.862 2°53.076 -999 -999 -999 -999 -999
2007-04-20 07:43:07 51°13.858 2°53.068 -999 -999 -999 -999 -999
2007-04-20 07:43:12 51°13.855 2°53.06 -999 -999 -999 -999 -999
2007-04-20 07:43:17 51°13.851 2°53.052 -999 -999 -999 -999 -999
2007-04-20 07:43:22 51°13.848 2°53.044 -999 -999 -999 -999 -999
2007-04-20 07:43:27 51°13.844 2°53.036 -999 -999 -999 -999 -999
2007-04-20 07:43:32 51°13.841 2°53.029 -999 -999 -999 -999 -999
2007-04-20 07:43:37 51°13.837 2°53.021 -999 -999 -999 -999 -999
2007-04-20 07:43:42 51°13.834 2°53.013 -999 -999 -999 -999 -999
2007-04-20 07:43:47 51°13.83 2°53.005 -999 -999 -999 -999 -999
2007-04-20 07:43:53 51°13.826 2°52.996 -999 -999 -999 -999 -999
2007-04-20 07:43:57 51°13.823 2°52.99 -999 -999 -999 -999 -999
2007-04-20 07:44:03 51°13.819 2°52.98 -999 -999 -999 -999 -999
2007-04-20 07:44:07 51°13.816 2°52.974 -999 -999 -999 -999 -999
2007-04-20 07:44:12 51°13.812 2°52.966 -999 -999 -999 -999 -999
2007-04-20 07:44:18 51°13.808 2°52.957 -999 -999 -999 -999 -999
2007-04-20 07:44:23 51°13.805 2°52.95 -999 -999 -999 -999 -999
2007-04-20 07:44:27 51°13.802 2°52.943 -999 -999 -999 -999 -999
2007-04-20 07:44:32 51°13.798 2°52.936 -999 -999 -999 -999 -999
2007-04-20 07:44:37 51°13.795 2°52.928 -999 -999 -999 -999 -999
2007-04-20 07:44:43 51°13.79 2°52.919 -999 -999 -999 -999 -999
2007-04-20 07:44:48 51°13.787 2°52.911 -999 -999 -999 -999 -999
2007-04-20 07:44:52 51°13.784 2°52.905 -999 -999 -999 -999 -999
2007-04-20 07:44:57 51°13.78 2°52.898 -999 -999 -999 -999 -999
2007-04-20 07:45:03 51°13.776 2°52.889 -999 -999 -999 -999 -999
2007-04-20 07:45:07 51°13.773 2°52.883 -999 -999 -999 -999 -999
2007-04-20 07:45:12 51°13.77 2°52.875 -999 -999 -999 -999 -999
2007-04-20 07:45:17 51°13.766 2°52.868 -999 -999 -999 -999 -999
2007-04-20 07:45:22 51°13.762 2°52.86 -999 -999 -999 -999 -999
2007-04-20 07:45:28 51°13.758 2°52.851 -999 -999 -999 -999 -999
2007-04-20 07:45:32 51°13.755 2°52.845 -999 -999 -999 -999 -999
2007-04-20 07:45:37 51°13.752 2°52.838 -999 -999 -999 -999 -999
2007-04-20 07:45:42 51°13.748 2°52.83 -999 -999 -999 -999 -999
2007-04-20 07:45:47 51°13.744 2°52.823 -999 -999 -999 -999 -999
2007-04-20 07:45:52 51°13.741 2°52.815 -999 -999 -999 -999 -999
2007-04-20 07:45:57 51°13.737 2°52.808 -999 -999 -999 -999 -999
2007-04-20 07:46:02 51°13.734 2°52.8 -999 -999 -999 -999 -999
2007-04-20 07:46:07 51°13.73 2°52.793 -999 -999 -999 -999 -999
2007-04-20 07:46:12 51°13.726 2°52.786 -999 -999 -999 -999 -999
2007-04-20 07:46:17 51°13.722 2°52.779 -999 -999 -999 -999 -999
2007-04-20 07:46:23 51°13.718 2°52.77 -999 -999 -999 -999 -999
2007-04-20 07:46:27 51°13.715 2°52.764 -999 -999 -999 -999 -999
2007-04-20 07:46:32 51°13.711 2°52.757 -999 -999 -999 -999 -999
2007-04-20 07:46:37 51°13.707 2°52.749 -999 -999 -999 -999 -999
2007-04-20 07:46:43 51°13.703 2°52.74 -999 -999 -999 -999 -999
2007-04-20 07:46:47 51°13.7 2°52.735 -999 -999 -999 -999 -999
2007-04-20 07:46:52 51°13.696 2°52.728 -999 -999 -999 -999 -999
2007-04-20 07:46:57 51°13.692 2°52.721 -999 -999 -999 -999 -999
2007-04-20 07:47:03 51°13.687 2°52.712 -999 -999 -999 -999 -999
2007-04-20 07:47:07 51°13.684 2°52.706 -999 -999 -999 -999 -999
2007-04-20 07:47:12 51°13.681 2°52.699 -999 -999 -999 -999 -999
2007-04-20 07:47:17 51°13.677 2°52.692 -999 -999 -999 -999 -999
2007-04-20 07:47:22 51°13.673 2°52.685 -999 -999 -999 -999 -999
2007-04-20 07:47:27 51°13.669 2°52.678 -999 -999 -999 -999 -999
2007-04-20 07:47:32 51°13.665 2°52.671 -999 -999 -999 -999 -999
2007-04-20 07:47:37 51°13.661 2°52.664 -999 -999 -999 -999 -999
2007-04-20 07:47:42 51°13.657 2°52.657 -999 -999 -999 -999 -999
2007-04-20 07:47:48 51°13.653 2°52.649 -999 -999 -999 -999 -999
2007-04-20 07:47:52 51°13.649 2°52.644 -999 -999 -999 -999 -999
2007-04-20 07:47:57 51°13.645 2°52.637 -999 -999 -999 -999 -999
2007-04-20 07:48:02 51°13.641 2°52.629 -999 -999 -999 -999 -999
2007-04-20 07:48:07 51°13.637 2°52.619 -999 -999 -999 -999 -999
2007-04-20 07:48:13 51°13.633 2°52.607 -999 -999 -999 -999 -999
2007-04-20 07:48:17 51°13.63 2°52.598 -999 -999 -999 -999 -999
2007-04-20 07:48:23 51°13.627 2°52.585 -999 -999 -999 -999 -999
2007-04-20 07:48:27 51°13.626 2°52.575 -999 -999 -999 -999 -999
2007-04-20 07:48:33 51°13.624 2°52.56 -999 -999 -999 -999 -999
2007-04-20 07:48:37 51°13.623 2°52.551 -999 -999 -999 -999 -999
2007-04-20 07:48:43 51°13.624 2°52.536 -999 -999 -999 -999 -999
2007-04-20 07:48:47 51°13.624 2°52.526 -999 -999 -999 -999 -999
2007-04-20 07:48:52 51°13.626 2°52.514 -999 -999 -999 -999 -999
2007-04-20 07:48:57 51°13.628 2°52.503 -999 -999 -999 -999 -999
2007-04-20 07:49:03 51°13.631 2°52.49 -999 -999 -999 -999 -999
2007-04-20 07:49:07 51°13.634 2°52.482 -999 -999 -999 -999 -999
2007-04-20 07:49:12 51°13.638 2°52.473 -999 -999 -999 -999 -999
2007-04-20 07:49:18 51°13.643 2°52.463 -999 -999 -999 -999 -999
2007-04-20 07:49:23 51°13.647 2°52.456 -999 -999 -999 -999 -999
2007-04-20 07:49:27 51°13.65 2°52.451 -999 -999 -999 -999 -999
2007-04-20 07:49:32 51°13.655 2°52.446 -999 -999 -999 -999 -999
2007-04-20 07:49:37 51°13.661 2°52.441 -999 -999 -999 -999 -999
2007-04-20 07:49:43 51°13.667 2°52.438 -999 -999 -999 -999 -999
2007-04-20 07:49:48 51°13.673 2°52.437 -999 -999 -999 -999 -999
2007-04-20 07:49:52 51°13.678 2°52.438 -999 -999 -999 -999 -999
2007-04-20 07:49:57 51°13.683 2°52.441 -999 -999 -999 -999 -999
2007-04-20 07:50:02 51°13.688 2°52.445 -999 -999 -999 -999 -999
2007-04-20 07:50:08 51°13.693 2°52.453 -999 -999 -999 -999 -999
2007-04-20 07:50:12 51°13.696 2°52.459 -999 -999 -999 -999 -999
2007-04-20 07:50:17 51°13.7 2°52.469 -999 -999 -999 -999 -999
2007-04-20 07:50:22 51°13.704 2°52.48 -999 -999 -999 -999 -999
2007-04-20 07:50:27 51°13.709 2°52.493 -999 -999 -999 -999 -999
2007-04-20 07:50:33 51°13.715 2°52.511 -999 -999 -999 -999 -999
2007-04-20 07:50:37 51°13.72 2°52.523 -999 -999 -999 -999 -999
2007-04-20 07:50:43 51°13.727 2°52.544 -999 -999 -999 -999 -999
2007-04-20 07:50:47 51°13.733 2°52.558 -999 -999 -999 -999 -999
2007-04-20 07:50:52 51°13.74 2°52.577 -999 -999 -999 -999 -999
2007-04-20 07:50:57 51°13.748 2°52.596 -999 -999 -999 -999 -999
2007-04-20 07:51:03 51°13.757 2°52.619 -999 -999 -999 -999 -999
2007-04-20 07:51:07 51°13.763 2°52.636 -999 -999 -999 -999 -999
2007-04-20 07:51:12 51°13.771 2°52.656 -999 -999 -999 -999 -999
2007-04-20 07:51:17 51°13.779 2°52.676 -999 -999 -999 -999 -999
2007-04-20 07:51:23 51°13.789 2°52.702 -999 -999 -999 -999 -999
2007-04-20 07:51:27 51°13.795 2°52.718 -999 -999 -999 -999 -999
2007-04-20 07:51:32 51°13.803 2°52.739 -999 -999 -999 -999 -999
2007-04-20 07:51:38 51°13.813 2°52.764 -999 -999 -999 -999 -999
2007-04-20 07:51:43 51°13.822 2°52.785 -999 -999 -999 -999 -999
2007-04-20 07:51:47 51°13.829 2°52.802 -999 -999 -999 -999 -999
2007-04-20 07:51:52 51°13.838 2°52.823 -999 -999 -999 -999 -999
2007-04-20 07:51:57 51°13.847 2°52.844 -999 -999 -999 -999 -999
2007-04-20 07:52:03 51°13.858 2°52.869 -999 -999 -999 -999 -999
2007-04-20 07:52:08 51°13.866 2°52.89 -999 -999 -999 -999 -999
2007-04-20 07:52:12 51°13.873 2°52.908 -999 -999 -999 -999 -999
2007-04-20 07:52:17 51°13.881 2°52.93 -999 -999 -999 -999 -999
2007-04-20 07:52:22 51°13.889 2°52.952 -999 -999 -999 -999 -999
2007-04-20 07:52:28 51°13.898 2°52.979 -999 -999 -999 -999 -999
2007-04-20 07:52:33 51°13.905 2°53.001 -999 -999 -999 -999 -999
2007-04-20 07:52:37 51°13.912 2°53.019 -999 -999 -999 -999 -999
2007-04-20 07:52:43 51°13.921 2°53.046 -999 -999 -999 -999 -999
2007-04-20 07:52:48 51°13.93 2°53.067 -999 -999 -999 -999 -999
2007-04-20 07:52:52 51°13.936 2°53.085 -999 -999 -999 -999 -999
2007-04-20 07:52:57 51°13.945 2°53.107 -999 -999 -999 -999 -999
2007-04-20 07:53:03 51°13.954 2°53.134 -999 -999 -999 -999 -999
2007-04-20 07:53:07 51°13.959 2°53.152 -999 -999 -999 -999 -999
2007-04-20 07:53:12 51°13.967 2°53.175 -999 -999 -999 -999 -999
2007-04-20 07:53:17 51°13.974 2°53.197 -999 -999 -999 -999 -999
2007-04-20 07:53:23 51°13.984 2°53.224 -999 -999 -999 -999 -999
2007-04-20 07:53:27 51°13.99 2°53.242 -999 -999 -999 -999 -999
2007-04-20 07:53:32 51°13.997 2°53.264 -999 -999 -999 -999 -999
2007-04-20 07:53:38 51°14.007 2°53.291 -999 -999 -999 -999 -999
2007-04-20 07:53:43 51°14.014 2°53.314 -999 -999 -999 -999 -999
2007-04-20 07:53:47 51°14.019 2°53.332 -999 -999 -999 -999 -999
2007-04-20 07:53:52 51°14.027 2°53.355 -999 -999 -999 -999 -999
2007-04-20 07:53:57 51°14.033 2°53.378 -999 -999 -999 -999 -999
2007-04-20 07:54:03 51°14.042 2°53.406 -999 -999 -999 -999 -999
2007-04-20 07:54:08 51°14.048 2°53.43 -999 -999 -999 -999 -999
2007-04-20 07:54:12 51°14.053 2°53.449 -999 -999 -999 -999 -999
2007-04-20 07:54:17 51°14.058 2°53.473 -999 -999 -999 -999 -999
2007-04-20 07:54:23 51°14.065 2°53.501 -999 -999 -999 -999 -999
2007-04-20 07:54:28 51°14.071 2°53.525 -999 -999 -999 -999 -999
2007-04-20 07:54:32 51°14.076 2°53.544 -999 -999 -999 -999 -999
2007-04-20 07:54:37 51°14.083 2°53.567 -999 -999 -999 -999 -999
2007-04-20 07:54:42 51°14.09 2°53.589 -999 -999 -999 -999 -999
2007-04-20 07:54:48 51°14.1 2°53.616 -999 -999 -999 -999 -999
2007-04-20 07:54:52 51°14.106 2°53.634 -999 -999 -999 -999 -999
2007-04-20 07:54:57 51°14.115 2°53.656 -999 -999 -999 -999 -999
2007-04-20 07:55:02 51°14.123 2°53.678 -999 -999 -999 -999 -999
2007-04-20 07:55:07 51°14.131 2°53.7 -999 -999 -999 -999 -999
2007-04-20 07:55:13 51°14.142 2°53.726 -999 -999 -999 -999 -999
2007-04-20 07:55:17 51°14.148 2°53.743 -999 -999 -999 -999 -999
2007-04-20 07:55:23 51°14.158 2°53.77 -999 -999 -999 -999 -999
2007-04-20 07:55:27 51°14.164 2°53.788 -999 -999 -999 -999 -999
2007-04-20 07:55:33 51°14.174 2°53.814 -999 -999 -999 -999 -999
2007-04-20 07:55:37 51°14.181 2°53.832 -999 -999 -999 -999 -999
2007-04-20 07:55:43 51°14.19 2°53.859 -999 -999 -999 -999 -999
2007-04-20 07:55:47 51°14.196 2°53.877 -999 -999 -999 -999 -999
2007-04-20 07:55:52 51°14.204 2°53.9 -999 -999 -999 -999 -999
2007-04-20 07:55:57 51°14.211 2°53.923 -999 -999 -999 -999 -999
2007-04-20 07:56:03 51°14.22 2°53.95 -999 -999 -999 -999 -999
2007-04-20 07:56:07 51°14.226 2°53.969 -999 -999 -999 -999 -999
2007-04-20 07:56:12 51°14.233 2°53.992 -999 -999 -999 -999 -999
2007-04-20 07:56:17 51°14.24 2°54.015 -999 -999 -999 -999 -999
2007-04-20 07:56:23 51°14.249 2°54.042 -999 -999 -999 -999 -999
2007-04-20 07:56:28 51°14.257 2°54.064 -999 -999 -999 -999 -999
2007-04-20 07:56:32 51°14.264 2°54.081 -999 -999 -999 -999 -999
2007-04-20 07:56:37 51°14.273 2°54.102 -999 -999 -999 -999 -999
2007-04-20 07:56:42 51°14.283 2°54.122 -999 -999 -999 -999 -999
2007-04-20 07:56:48 51°14.295 2°54.146 -999 -999 -999 -999 -999
2007-04-20 07:56:52 51°14.303 2°54.162 -999 -999 -999 -999 -999
2007-04-20 07:56:57 51°14.314 2°54.181 -999 -999 -999 -999 -999
2007-04-20 07:57:02 51°14.324 2°54.201 -999 -999 -999 -999 -999
2007-04-20 07:57:07 51°14.333 2°54.222 -999 -999 -999 -999 -999
2007-04-20 07:57:12 51°14.341 2°54.245 -999 -999 -999 -999 -999
2007-04-20 07:57:17 51°14.348 2°54.268 -999 -999 -999 -999 -999
2007-04-20 07:57:23 51°14.355 2°54.297 -999 -999 -999 -999 -999
2007-04-20 07:57:27 51°14.359 2°54.317 -999 -999 -999 -999 -999
2007-04-20 07:57:33 51°14.365 2°54.346 -999 -999 -999 -999 -999
2007-04-20 07:57:37 51°14.368 2°54.366 -999 -999 -999 -999 -999
2007-04-20 07:57:43 51°14.373 2°54.396 -999 -999 -999 -999 -999
2007-04-20 07:57:47 51°14.378 2°54.415 -999 -999 -999 -999 -999
2007-04-20 07:57:52 51°14.382 2°54.44 -999 -999 -999 -999 -999
2007-04-20 07:57:57 51°14.387 2°54.465 -999 -999 -999 -999 -999
2007-04-20 07:58:03 51°14.391 2°54.496 -999 -999 -999 -999 -999
2007-04-20 07:58:07 51°14.393 2°54.516 -999 -999 -999 -999 -999
2007-04-20 07:58:12 51°14.395 2°54.543 -999 -999 -999 -999 -999
2007-04-20 07:58:17 51°14.396 2°54.57 -999 -999 -999 -999 -999
2007-04-20 07:58:23 51°14.397 2°54.603 -999 -999 -999 -999 -999
2007-04-20 07:58:27 51°14.398 2°54.626 -999 -999 -999 -999 -999
2007-04-20 07:58:32 51°14.399 2°54.654 -999 -999 -999 -999 -999
2007-04-20 07:58:37 51°14.398 2°54.681 -999 -999 -999 -999 -999
2007-04-20 07:58:43 51°14.397 2°54.715 -999 -999 -999 -999 -999
2007-04-20 07:58:47 51°14.397 2°54.737 -999 -999 -999 -999 -999
2007-04-20 07:58:52 51°14.395 2°54.763 -999 -999 -999 -999 -999
2007-04-20 07:58:57 51°14.393 2°54.79 -999 -999 -999 -999 -999
2007-04-20 07:59:03 51°14.389 2°54.821 -999 -999 -999 -999 -999
2007-04-20 07:59:08 51°14.387 2°54.847 -999 -999 -999 -999 -999
2007-04-20 07:59:12 51°14.384 2°54.869 -999 -999 -999 -999 -999
2007-04-20 07:59:17 51°14.382 2°54.896 -999 -999 -999 -999 -999
2007-04-20 07:59:22 51°14.379 2°54.924 -999 -999 -999 -999 -999
2007-04-20 07:59:28 51°14.374 2°54.955 -999 -999 -999 -999 -999
2007-04-20 07:59:33 51°14.371 2°54.981 -999 -999 -999 -999 -999
2007-04-20 07:59:37 51°14.367 2°55.002 -999 -999 -999 -999 -999
2007-04-20 07:59:43 51°14.361 2°55.033 -999 -999 -999 -999 -999
2007-04-20 07:59:47 51°14.356 2°55.053 -999 -999 -999 -999 -999
2007-04-20 07:59:53 51°14.348 2°55.083 -999 -999 -999 -999 -999
2007-04-20 07:59:57 51°14.342 2°55.104 -999 -999 -999 -999 -999
2007-04-20 08:00:03 51°14.332 2°55.133 -999 -999 -999 -999 -999
2007-04-20 08:00:07 51°14.325 2°55.151 -999 -999 -999 -999 -999
2007-04-20 08:00:12 51°14.315 2°55.172 -999 -999 -999 -999 -999
2007-04-20 08:00:18 51°14.303 2°55.195 -999 -999 -999 -999 -999
2007-04-20 08:00:23 51°14.294 2°55.214 -999 -999 -999 -999 -999
2007-04-20 08:00:27 51°14.287 2°55.227 -999 -999 -999 -999 -999
2007-04-20 08:00:32 51°14.279 2°55.243 -999 -999 -999 -999 -999
2007-04-20 08:00:38 51°14.268 2°55.261 -999 -999 -999 -999 -999
2007-04-20 08:00:43 51°14.259 2°55.274 -999 -999 -999 -999 -999
2007-04-20 08:00:48 51°14.25 2°55.286 -999 -999 -999 -999 -999
2007-04-20 08:00:52 51°14.243 2°55.295 -999 -999 -999 -999 -999
2007-04-20 08:00:58 51°14.232 2°55.308 -999 -999 -999 -999 -999
2007-04-20 08:01:03 51°14.223 2°55.319 -999 -999 -999 -999 -999
2007-04-20 08:01:08 51°14.214 2°55.329 -999 -999 -999 -999 -999
2007-04-20 08:01:13 51°14.205 2°55.338 -999 -999 -999 -999 -999
2007-04-20 08:01:17 51°14.198 2°55.346 -999 -999 -999 -999 -999
2007-04-20 08:01:22 51°14.19 2°55.356 -999 -999 -999 -999 -999
2007-04-20 08:01:28 51°14.18 2°55.367 -999 -999 -999 -999 -999
2007-04-20 08:01:32 51°14.173 2°55.375 -999 -999 -999 -999 -999
2007-04-20 08:01:37 51°14.166 2°55.384 -999 -999 -999 -999 -999
2007-04-20 08:01:43 51°14.156 2°55.395 -999 -999 -999 -999 -999
2007-04-20 08:01:48 51°14.148 2°55.405 -999 -999 -999 -999 -999
2007-04-20 08:01:53 51°14.141 2°55.414 -999 -999 -999 -999 -999
2007-04-20 08:01:58 51°14.133 2°55.423 -999 -999 -999 -999 -999
2007-04-20 08:02:02 51°14.126 2°55.43 -999 -999 -999 -999 -999
2007-04-20 08:02:07 51°14.118 2°55.439 -999 -999 -999 -999 -999
2007-04-20 08:02:13 51°14.108 2°55.449 -999 -999 -999 -999 -999
2007-04-20 08:02:18 51°14.101 2°55.458 -999 -999 -999 -999 -999
2007-04-20 08:02:23 51°14.093 2°55.468 -999 -999 -999 -999 -999
2007-04-20 08:02:27 51°14.087 2°55.475 -999 -999 -999 -999 -999
2007-04-20 08:02:32 51°14.079 2°55.484 -999 -999 -999 -999 -999
2007-04-20 08:02:37 51°14.072 2°55.494 -999 -999 -999 -999 -999
2007-04-20 08:02:43 51°14.064 2°55.505 -999 -999 -999 -999 -999
2007-04-20 08:02:47 51°14.058 2°55.512 -999 -999 -999 -999 -999
2007-04-20 08:02:53 51°14.051 2°55.523 -999 -999 -999 -999 -999
2007-04-20 08:02:57 51°14.046 2°55.53 -999 -999 -999 -999 -999
2007-04-20 08:03:03 51°14.039 2°55.54 -999 -999 -999 -999 -999
2007-04-20 08:03:07 51°14.034 2°55.547 -999 -999 -999 -999 -999
2007-04-20 08:03:12 51°14.029 2°55.555 -999 -999 -999 -999 -999
2007-04-20 08:03:17 51°14.024 2°55.563 -999 -999 -999 -999 -999
2007-04-20 08:03:23 51°14.018 2°55.573 -999 -999 -999 -999 -999
2007-04-20 08:03:28 51°14.013 2°55.58 -999 -999 -999 -999 -999
2007-04-20 08:03:32 51°14.009 2°55.585 -999 -999 -999 -999 -999
2007-04-20 08:03:37 51°14.003 2°55.591 -999 -999 -999 -999 -999
2007-04-20 08:03:42 51°13.997 2°55.596 -999 -999 -999 -999 -999
2007-04-20 08:03:48 51°13.99 2°55.601 -999 -999 -999 -999 -999
2007-04-20 08:03:52 51°13.985 2°55.603 -999 -999 -999 -999 -999
2007-04-20 08:03:58 51°13.978 2°55.605 -999 -999 -999 -999 -999
2007-04-20 08:04:03 51°13.973 2°55.606 -999 -999 -999 -999 -999
2007-04-20 08:04:07 51°13.968 2°55.606 -999 -999 -999 -999 -999
2007-04-20 08:04:13 51°13.962 2°55.605 -999 -999 -999 -999 -999
2007-04-20 08:04:17 51°13.958 2°55.603 -999 -999 -999 -999 -999
2007-04-20 08:04:23 51°13.952 2°55.6 -999 -999 -999 -999 -999
2007-04-20 08:04:27 51°13.948 2°55.597 -999 -999 -999 -999 -999
2007-04-20 08:04:32 51°13.944 2°55.594 -999 -999 -999 -999 -999
2007-04-20 08:04:38 51°13.941 2°55.59 -999 -999 -999 -999 -999
2007-04-20 08:04:43 51°13.938 2°55.587 -999 -999 -999 -999 -999
2007-04-20 08:04:47 51°13.937 2°55.586 -999 -999 -999 -999 -999
2007-04-20 08:04:52 51°13.936 2°55.585 -999 -999 -999 -999 -999
2007-04-20 08:04:58 51°13.936 2°55.584 -999 -999 -999 -999 -999
2007-04-20 08:05:03 51°13.937 2°55.586 -999 -999 -999 -999 -999
2007-04-20 08:05:08 51°13.937 2°55.587 -999 -999 -999 -999 -999
2007-04-20 08:05:12 51°13.938 2°55.59 -999 -999 -999 -999 -999
2007-04-20 08:05:17 51°13.939 2°55.593 -999 -999 -999 -999 -999
2007-04-20 08:05:23 51°13.941 2°55.598 -999 -999 -999 -999 -999
2007-04-20 08:05:28 51°13.942 2°55.602 -999 -999 -999 -999 -999
2007-04-20 08:05:33 51°13.943 2°55.606 -999 -999 -999 -999 -999
2007-04-20 08:05:38 51°13.944 2°55.61 -999 -999 -999 -999 -999
2007-04-20 08:05:43 51°13.945 2°55.614 -999 -999 -999 -999 -999
2007-04-20 08:05:48 51°13.946 2°55.619 -999 -999 -999 -999 -999
2007-04-20 08:05:53 51°13.947 2°55.623 -999 -999 -999 -999 -999
2007-04-20 08:05:58 51°13.948 2°55.626 -999 -999 -999 -999 -999
2007-04-20 08:06:03 51°13.949 2°55.628 -999 -999 -999 -999 -999
2007-04-20 08:06:08 51°13.949 2°55.629 -999 -999 -999 -999 -999
2007-04-20 08:06:13 51°13.949 2°55.629 -999 -999 -999 -999 -999
2007-04-20 08:06:18 51°13.95 2°55.628 -999 -999 -999 -999 -999
2007-04-20 08:06:23 51°13.95 2°55.626 -999 -999 -999 -999 -999
2007-04-20 08:06:28 51°13.95 2°55.624 -999 -999 -999 -999 -999
2007-04-20 08:06:33 51°13.951 2°55.622 -999 -999 -999 -999 -999
2007-04-20 08:06:38 51°13.951 2°55.619 -999 -999 -999 -999 -999
2007-04-20 08:06:43 51°13.951 2°55.616 -999 -999 -999 -999 -999
2007-04-20 08:06:48 51°13.952 2°55.613 -999 -999 -999 -999 -999
2007-04-20 08:06:53 51°13.953 2°55.609 -999 -999 -999 -999 -999
2007-04-20 08:06:58 51°13.953 2°55.605 -999 -999 -999 -999 -999
2007-04-20 08:07:03 51°13.954 2°55.601 -999 -999 -999 -999 -999
2007-04-20 08:07:07 51°13.955 2°55.598 -999 -999 -999 -999 -999
2007-04-20 08:07:12 51°13.956 2°55.593 -999 -999 -999 -999 -999
2007-04-20 08:07:18 51°13.957 2°55.587 -999 -999 -999 -999 -999
2007-04-20 08:07:23 51°13.959 2°55.582 -999 -999 -999 -999 -999
2007-04-20 08:07:28 51°13.96 2°55.577 -999 -999 -999 -999 -999
2007-04-20 08:07:32 51°13.962 2°55.573 -999 -999 -999 -999 -999
2007-04-20 08:07:37 51°13.964 2°55.567 -999 -999 -999 -999 -999
2007-04-20 08:07:43 51°13.966 2°55.561 -999 -999 -999 -999 -999
2007-04-20 08:07:48 51°13.967 2°55.556 -999 -999 -999 -999 -999
2007-04-20 08:07:52 51°13.969 2°55.552 -999 -999 -999 -999 -999
2007-04-20 08:07:57 51°13.971 2°55.547 -999 -999 -999 -999 -999
2007-04-20 08:08:03 51°13.973 2°55.542 -999 -999 -999 -999 -999
2007-04-20 08:08:08 51°13.975 2°55.537 -999 -999 -999 -999 -999
2007-04-20 08:08:13 51°13.977 2°55.532 -999 -999 -999 -999 -999
2007-04-20 08:08:18 51°13.979 2°55.528 -999 -999 -999 -999 -999
2007-04-20 08:08:23 51°13.981 2°55.523 -999 -999 -999 -999 -999
2007-04-20 08:08:27 51°13.982 2°55.519 -999 -999 -999 -999 -999
2007-04-20 08:08:33 51°13.984 2°55.513 -999 -999 -999 -999 -999
2007-04-20 08:08:38 51°13.986 2°55.508 -999 -999 -999 -999 -999
2007-04-20 08:08:43 51°13.988 2°55.503 -999 -999 -999 -999 -999
2007-04-20 08:08:47 51°13.989 2°55.499 -999 -999 -999 -999 -999
2007-04-20 08:08:53 51°13.991 2°55.494 -999 -999 -999 -999 -999
2007-04-20 08:08:58 51°13.992 2°55.489 -999 -999 -999 -999 -999
2007-04-20 08:09:03 51°13.994 2°55.485 -999 -999 -999 -999 -999
2007-04-20 08:09:08 51°13.995 2°55.482 -999 -999 -999 -999 -999
2007-04-20 08:09:13 51°13.996 2°55.478 -999 -999 -999 -999 -999
2007-04-20 08:09:17 51°13.998 2°55.476 -999 -999 -999 -999 -999
2007-04-20 08:09:23 51°13.999 2°55.472 -999 -999 -999 -999 -999
2007-04-20 08:09:27 51°14 2°55.47 -999 -999 -999 -999 -999
2007-04-20 08:09:32 51°14.001 2°55.467 -999 -999 -999 -999 -999
2007-04-20 08:09:38 51°14.003 2°55.464 -999 -999 -999 -999 -999
2007-04-20 08:09:43 51°14.004 2°55.462 -999 -999 -999 -999 -999
2007-04-20 08:09:47 51°14.005 2°55.46 -999 -999 -999 -999 -999
2007-04-20 08:09:52 51°14.006 2°55.459 -999 -999 -999 -999 -999
2007-04-20 08:09:57 51°14.006 2°55.458 -999 -999 -999 -999 -999
2007-04-20 08:10:03 51°14.006 2°55.457 -999 -999 -999 -999 -999
2007-04-20 08:10:08 51°14.006 2°55.457 -999 -999 -999 -999 -999
2007-04-20 08:10:12 51°14.006 2°55.458 -999 -999 -999 -999 -999
2007-04-20 08:10:17 51°14.006 2°55.457 -999 -999 -999 -999 -999
2007-04-20 08:10:22 51°14.006 2°55.457 -999 -999 -999 -999 -999
2007-04-20 08:10:28 51°14.006 2°55.457 -999 -999 -999 -999 -999
2007-04-20 08:10:33 51°14.006 2°55.457 -999 -999 -999 -999 -999
2007-04-20 08:10:37 51°14.007 2°55.457 -999 -999 -999 -999 -999
2007-04-20 08:10:43 51°14.007 2°55.456 -999 -999 -999 -999 -999
2007-04-20 08:10:48 51°14.007 2°55.456 -999 -999 -999 -999 -999
2007-04-20 08:10:52 51°14.007 2°55.456 -999 -999 -999 -999 -999
2007-04-20 08:10:57 51°14.007 2°55.455 -999 -999 -999 -999 -999
2007-04-20 08:11:03 51°14.007 2°55.455 -999 -999 -999 -999 -999
2007-04-20 08:11:07 51°14.007 2°55.455 -999 -999 -999 -999 -999
2007-04-20 08:11:13 51°14.007 2°55.454 -999 -999 -999 -999 -999
2007-04-20 08:11:17 51°14.007 2°55.454 -999 -999 -999 -999 -999
2007-04-20 08:11:23 51°14.005 2°55.455 -999 -999 -999 -999 -999
2007-04-20 08:11:27 51°14.006 2°55.454 -999 -999 -999 -999 -999
2007-04-20 08:11:33 51°14.007 2°55.454 -999 -999 -999 -999 -999
2007-04-20 08:11:38 51°14.006 2°55.454 -999 -999 -999 -999 -999
2007-04-20 08:11:43 51°14.006 2°55.454 -999 -999 -999 -999 -999
2007-04-20 08:11:48 51°14.006 2°55.454 -999 -999 -999 -999 -999
2007-04-20 08:11:53 51°14.006 2°55.454 -999 -999 -999 -999 -999
2007-04-20 08:11:58 51°14.006 2°55.454 -999 -999 -999 -999 -999
2007-04-20 08:12:03 51°14.006 2°55.454 -999 -999 -999 -999 -999
2007-04-20 08:12:08 51°14.006 2°55.454 -999 -999 -999 -999 -999
2007-04-20 08:12:13 51°14.006 2°55.454 -999 -999 -999 -999 -999
2007-04-20 08:12:17 51°14.006 2°55.454 -999 -999 -999 -999 -999
2007-04-20 08:12:23 51°14.006 2°55.453 -999 -999 -999 -999 -999
2007-04-20 08:12:28 51°14.007 2°55.453 -999 -999 -999 -999 -999
2007-04-20 08:12:33 51°14.007 2°55.453 -999 -999 -999 -999 -999
2007-04-20 08:12:38 51°14.007 2°55.453 -999 -999 -999 -999 -999
2007-04-20 08:12:43 51°14.006 2°55.453 -999 -999 -999 -999 -999
2007-04-20 08:12:48 51°14.006 2°55.453 -999 -999 -999 -999 -999
2007-04-20 08:12:53 51°14.006 2°55.453 -999 -999 -999 -999 -999
2007-04-20 08:12:58 51°14.006 2°55.453 -999 -999 -999 -999 -999
2007-04-20 08:13:03 51°14.006 2°55.453 -999 -999 -999 -999 -999
2007-04-20 08:13:07 51°14.006 2°55.453 -999 -999 -999 -999 -999
2007-04-20 08:13:13 51°14.006 2°55.452 -999 -999 -999 -999 -999
2007-04-20 08:13:18 51°14.006 2°55.452 -999 -999 -999 -999 -999
2007-04-20 08:13:23 51°14.006 2°55.452 -999 -999 -999 -999 -999
2007-04-20 08:13:28 51°14.006 2°55.452 -999 -999 -999 -999 -999
2007-04-20 08:13:32 51°14.006 2°55.452 -999 -999 -999 -999 -999
2007-04-20 08:13:38 51°14.006 2°55.452 -999 -999 -999 -999 -999
2007-04-20 08:13:43 51°14.006 2°55.452 -999 -999 -999 -999 -999
2007-04-20 08:13:48 51°14.006 2°55.452 -999 -999 -999 -999 -999
2007-04-20 08:13:53 51°14.006 2°55.451 -999 -999 -999 -999 -999
2007-04-20 08:13:58 51°14.006 2°55.452 -999 -999 -999 -999 -999
2007-04-20 08:14:03 51°14.006 2°55.452 -999 -999 -999 -999 -999
2007-04-20 08:14:08 51°14.006 2°55.452 -999 -999 -999 -999 -999
2007-04-20 08:14:13 51°14.006 2°55.452 -999 -999 -999 -999 -999
2007-04-20 08:14:18 51°14.006 2°55.452 -999 -999 -999 -999 -999
2007-04-20 08:14:23 51°14.006 2°55.451 -999 -999 -999 -999 -999
2007-04-20 08:14:28 51°14.006 2°55.451 -999 -999 -999 -999 -999
2007-04-20 08:14:33 51°14.006 2°55.451 -999 -999 -999 -999 -999
2007-04-20 08:14:38 51°14.006 2°55.451 -999 -999 -999 -999 -999
2007-04-20 08:14:43 51°14.006 2°55.451 -999 -999 -999 -999 -999
2007-04-20 08:14:48 51°14.006 2°55.451 -999 -999 -999 -999 -999
2007-04-20 08:14:53 51°14.006 2°55.451 -999 -999 -999 -999 -999
2007-04-20 08:14:58 51°14.006 2°55.451 -999 -999 -999 -999 -999
2007-04-20 08:15:03 51°14.006 2°55.451 -999 -999 -999 -999 -999
2007-04-20 08:15:08 51°14.006 2°55.451 -999 -999 -999 -999 -999
2007-04-20 08:15:13 51°14.006 2°55.451 -999 -999 -999 -999 -999
2007-04-20 08:15:18 51°14.006 2°55.451 -999 -999 -999 -999 -999
2007-04-20 08:15:23 51°14.006 2°55.451 -999 -999 -999 -999 -999
2007-04-20 08:15:28 51°14.005 2°55.45 -999 -999 -999 -999 -999
2007-04-20 08:15:33 51°14.005 2°55.45 -999 -999 -999 -999 -999
2007-04-20 08:15:38 51°14.005 2°55.451 -999 -999 -999 -999 -999
2007-04-20 08:15:43 51°14.005 2°55.451 -999 -999 -999 -999 -999
2007-04-20 08:15:48 51°14.005 2°55.451 -999 -999 -999 -999 -999
2007-04-20 08:15:53 51°14.005 2°55.451 -999 -999 -999 -999 -999
2007-04-20 08:15:58 51°14.005 2°55.451 -999 -999 -999 -999 -999
2007-04-20 08:16:03 51°14.005 2°55.451 -999 -999 -999 -999 -999
2007-04-20 08:16:08 51°14.005 2°55.451 -999 -999 -999 -999 -999
2007-04-20 08:16:13 51°14.005 2°55.452 -999 -999 -999 -999 -999
2007-04-20 08:16:18 51°14.005 2°55.452 -999 -999 -999 -999 -999
2007-04-20 08:16:23 51°14.005 2°55.452 -999 -999 -999 -999 -999
2007-04-20 08:16:28 51°14.005 2°55.451 -999 -999 -999 -999 -999
2007-04-20 08:16:33 51°14.005 2°55.451 -999 -999 -999 -999 -999
2007-04-20 08:16:38 51°14.005 2°55.451 -999 -999 -999 -999 -999
2007-04-20 08:16:43 51°14.005 2°55.451 -999 -999 -999 -999 -999
2007-04-20 08:16:48 51°14.005 2°55.451 -999 -999 -999 -999 -999
2007-04-20 08:16:53 51°14.005 2°55.451 -999 -999 -999 -999 -999
2007-04-20 08:16:58 51°14.005 2°55.451 -999 -999 -999 -999 -999
2007-04-20 08:17:03 51°14.005 2°55.451 -999 -999 -999 -999 -999
2007-04-20 08:17:08 51°14.004 2°55.451 -999 -999 -999 -999 -999
2007-04-20 08:17:13 51°14.004 2°55.451 -999 -999 -999 -999 -999
2007-04-20 08:17:18 51°14.004 2°55.452 -999 -999 -999 -999 -999
2007-04-20 08:17:23 51°14.004 2°55.452 -999 -999 -999 -999 -999
2007-04-20 08:17:28 51°14.004 2°55.452 -999 -999 -999 -999 -999
2007-04-20 08:17:33 51°14.004 2°55.451 -999 -999 -999 -999 -999
2007-04-20 08:17:38 51°14.003 2°55.452 -999 -999 -999 -999 -999
2007-04-20 08:17:43 51°14.003 2°55.453 -999 -999 -999 -999 -999
2007-04-20 08:17:47 51°14.003 2°55.454 -999 -999 -999 -999 -999
2007-04-20 08:17:53 51°14.003 2°55.454 -999 -999 -999 -999 -999
2007-04-20 08:17:58 51°14.003 2°55.455 -999 -999 -999 -999 -999
2007-04-20 08:18:03 51°14.003 2°55.455 -999 -999 -999 -999 -999
2007-04-20 08:18:08 51°14.003 2°55.454 -999 -999 -999 -999 -999
2007-04-20 08:18:13 51°14.003 2°55.455 -999 -999 -999 -999 -999
2007-04-20 08:18:18 51°14.002 2°55.455 -999 -999 -999 -999 -999
2007-04-20 08:18:23 51°14.002 2°55.455 -999 -999 -999 -999 -999
2007-04-20 08:18:28 51°14.003 2°55.455 -999 -999 -999 -999 -999
2007-04-20 08:18:33 51°14.004 2°55.454 -999 -999 -999 -999 -999
2007-04-20 08:18:38 51°14.004 2°55.452 -999 -999 -999 -999 -999
2007-04-20 08:18:43 51°14.004 2°55.452 -999 -999 -999 -999 -999
2007-04-20 08:18:48 51°14.004 2°55.451 -999 -999 -999 -999 -999
2007-04-20 08:18:53 51°14.004 2°55.451 -999 -999 -999 -999 -999
2007-04-20 08:18:58 51°14.004 2°55.451 -999 -999 -999 -999 -999
2007-04-20 08:19:03 51°14.004 2°55.451 -999 -999 -999 -999 -999
2007-04-20 08:19:08 51°14.004 2°55.451 -999 -999 -999 -999 -999
2007-04-20 08:19:13 51°14.004 2°55.452 -999 -999 -999 -999 -999
2007-04-20 08:19:18 51°14.004 2°55.452 -999 -999 -999 -999 -999
2007-04-20 08:19:23 51°14.004 2°55.452 -999 -999 -999 -999 -999
2007-04-20 08:19:28 51°14.004 2°55.451 -999 -999 -999 -999 -999
2007-04-20 08:19:33 51°14.004 2°55.451 -999 -999 -999 -999 -999
2007-04-20 08:19:38 51°14.004 2°55.451 -999 -999 -999 -999 -999
2007-04-20 08:19:43 51°14.005 2°55.45 -999 -999 -999 -999 -999
2007-04-20 08:19:48 51°14.005 2°55.449 -999 -999 -999 -999 -999
2007-04-20 08:19:53 51°14.006 2°55.448 -999 -999 -999 -999 -999
2007-04-20 08:19:58 51°14.006 2°55.447 -999 -999 -999 -999 -999
2007-04-20 08:20:03 51°14.006 2°55.446 -999 -999 -999 -999 -999
2007-04-20 08:20:08 51°14.006 2°55.446 -999 -999 -999 -999 -999
2007-04-20 08:20:13 51°14.005 2°55.447 -999 -999 -999 -999 -999
2007-04-20 08:20:18 51°14.005 2°55.447 -999 -999 -999 -999 -999
2007-04-20 08:20:23 51°14.005 2°55.448 -999 -999 -999 -999 -999
2007-04-20 08:20:28 51°14.004 2°55.449 -999 -999 -999 -999 -999
2007-04-20 08:20:33 51°14.004 2°55.45 -999 -999 -999 -999 -999
2007-04-20 08:20:38 51°14.004 2°55.45 -999 -999 -999 -999 -999
2007-04-20 08:20:43 51°14.004 2°55.449 -999 -999 -999 -999 -999
2007-04-20 08:20:48 51°14.005 2°55.448 -999 -999 -999 -999 -999
2007-04-20 08:20:53 51°14.005 2°55.447 -999 -999 -999 -999 -999
2007-04-20 08:20:58 51°14.005 2°55.448 -999 -999 -999 -999 -999
2007-04-20 08:21:03 51°14.004 2°55.448 -999 -999 -999 -999 -999
2007-04-20 08:21:08 51°14.004 2°55.449 -999 -999 -999 -999 -999
2007-04-20 08:21:13 51°14.004 2°55.449 -999 -999 -999 -999 -999
2007-04-20 08:21:18 51°14.005 2°55.449 -999 -999 -999 -999 -999
2007-04-20 08:21:23 51°14.005 2°55.449 -999 -999 -999 -999 -999
2007-04-20 08:21:28 51°14.005 2°55.449 -999 -999 -999 -999 -999
2007-04-20 08:21:33 51°14.005 2°55.449 -999 -999 -999 -999 -999
2007-04-20 08:21:38 51°14.005 2°55.449 -999 -999 -999 -999 -999
2007-04-20 08:21:43 51°14.005 2°55.449 -999 -999 -999 -999 -999
2007-04-20 08:21:48 51°14.005 2°55.45 -999 -999 -999 -999 -999
2007-04-20 08:21:53 51°14.005 2°55.45 -999 -999 -999 -999 -999
2007-04-20 08:21:58 51°14.005 2°55.45 -999 -999 -999 -999 -999
2007-04-20 08:22:03 51°14.005 2°55.45 -999 -999 -999 -999 -999
2007-04-20 08:22:08 51°14.005 2°55.45 -999 -999 -999 -999 -999
2007-04-20 08:22:13 51°14.005 2°55.45 -999 -999 -999 -999 -999
2007-04-20 08:22:18 51°14.005 2°55.45 -999 -999 -999 -999 -999
2007-04-20 08:22:23 51°14.005 2°55.45 -999 -999 -999 -999 -999
2007-04-20 08:22:28 51°14.005 2°55.45 -999 -999 -999 -999 -999
2007-04-20 08:22:33 51°14.005 2°55.45 -999 -999 -999 -999 -999
2007-04-20 08:22:38 51°14.005 2°55.45 -999 -999 -999 -999 -999
2007-04-20 08:22:43 51°14.005 2°55.45 -999 -999 -999 -999 -999
2007-04-20 08:22:48 51°14.005 2°55.45 -999 -999 -999 -999 -999
2007-04-20 08:22:53 51°14.005 2°55.45 -999 -999 -999 -999 -999
2007-04-20 08:22:58 51°14.005 2°55.45 -999 -999 -999 -999 -999
2007-04-20 08:23:03 51°14.005 2°55.45 -999 -999 -999 -999 -999
2007-04-20 08:23:08 51°14.005 2°55.45 -999 -999 -999 -999 -999
2007-04-20 08:23:13 51°14.005 2°55.45 -999 -999 -999 -999 -999
2007-04-20 08:23:18 51°14.005 2°55.45 -999 -999 -999 -999 -999
2007-04-20 08:23:23 51°14.005 2°55.451 -999 -999 -999 -999 -999
2007-04-20 08:23:28 51°14.005 2°55.451 -999 -999 -999 -999 -999
2007-04-20 08:23:33 51°14.005 2°55.451 -999 -999 -999 -999 -999
2007-04-20 08:23:38 51°14.005 2°55.451 -999 -999 -999 -999 -999
2007-04-20 08:23:43 51°14.005 2°55.451 -999 -999 -999 -999 -999
2007-04-20 08:23:48 51°14.005 2°55.451 -999 -999 -999 -999 -999
2007-04-20 08:23:53 51°14.005 2°55.451 -999 -999 -999 -999 -999
2007-04-20 08:23:58 51°14.005 2°55.451 -999 -999 -999 -999 -999
2007-04-20 08:24:03 51°14.005 2°55.451 -999 -999 -999 -999 -999
2007-04-20 08:24:08 51°14.005 2°55.451 -999 -999 -999 -999 -999
2007-04-20 08:24:13 51°14.005 2°55.451 -999 -999 -999 -999 -999
2007-04-20 08:24:18 51°14.005 2°55.451 -999 -999 -999 -999 -999
2007-04-20 08:24:23 51°14.005 2°55.451 -999 -999 -999 -999 -999
2007-04-20 08:24:28 51°14.005 2°55.451 -999 -999 -999 -999 -999
2007-04-20 08:24:33 51°14.005 2°55.451 -999 -999 -999 -999 -999
2007-04-20 08:24:38 51°14.005 2°55.451 -999 -999 -999 -999 -999
2007-04-20 08:24:43 51°14.005 2°55.451 -999 -999 -999 -999 -999
2007-04-20 08:24:48 51°14.005 2°55.451 -999 -999 -999 -999 -999
2007-04-20 08:24:53 51°14.005 2°55.451 -999 -999 -999 -999 -999
2007-04-20 08:24:58 51°14.005 2°55.451 -999 -999 -999 -999 -999
2007-04-20 08:25:03 51°14.005 2°55.451 -999 -999 -999 -999 -999
2007-04-20 08:25:08 51°14.005 2°55.451 -999 -999 -999 -999 -999
2007-04-20 08:25:13 51°14.005 2°55.451 -999 -999 -999 -999 -999
2007-04-20 08:25:18 51°14.005 2°55.451 -999 -999 -999 -999 -999
2007-04-20 08:25:23 51°14.005 2°55.451 -999 -999 -999 -999 -999
2007-04-20 08:25:28 51°14.005 2°55.451 -999 -999 -999 -999 -999
2007-04-20 08:25:33 51°14.005 2°55.451 -999 -999 -999 -999 -999
2007-04-20 08:25:38 51°14.005 2°55.451 -999 -999 -999 -999 -999
2007-04-20 08:25:43 51°14.005 2°55.451 -999 -999 -999 -999 -999
2007-04-20 08:25:48 51°14.005 2°55.45 -999 -999 -999 -999 -999
2007-04-20 08:25:53 51°14.005 2°55.45 -999 -999 -999 -999 -999
2007-04-20 08:25:58 51°14.005 2°55.45 -999 -999 -999 -999 -999
2007-04-20 08:26:03 51°14.005 2°55.45 -999 -999 -999 -999 -999
2007-04-20 08:26:08 51°14.005 2°55.45 -999 -999 -999 -999 -999
2007-04-20 08:26:13 51°14.005 2°55.45 -999 -999 -999 -999 -999
2007-04-20 08:26:18 51°14.005 2°55.45 -999 -999 -999 -999 -999
2007-04-20 08:26:23 51°14.005 2°55.45 -999 -999 -999 -999 -999
2007-04-20 08:26:28 51°14.005 2°55.45 -999 -999 -999 -999 -999
2007-04-20 08:26:33 51°14.005 2°55.45 -999 -999 -999 -999 -999
2007-04-20 08:26:38 51°14.005 2°55.45 -999 -999 -999 -999 -999
2007-04-20 08:26:43 51°14.005 2°55.45 -999 -999 -999 -999 -999
2007-04-20 08:26:48 51°14.005 2°55.45 -999 -999 -999 -999 -999
2007-04-20 08:26:53 51°14.005 2°55.45 -999 -999 -999 -999 -999
2007-04-20 08:26:58 51°14.005 2°55.45 -999 -999 -999 -999 -999
2007-04-20 08:27:03 51°14.005 2°55.45 -999 -999 -999 -999 -999
2007-04-20 08:27:08 51°14.005 2°55.45 -999 -999 -999 -999 -999
2007-04-20 08:27:13 51°14.005 2°55.45 -999 -999 -999 -999 -999
2007-04-20 08:27:18 51°14.005 2°55.45 -999 -999 -999 -999 -999
2007-04-20 08:27:23 51°14.005 2°55.45 -999 -999 -999 -999 -999
2007-04-20 08:27:28 51°14.005 2°55.45 -999 -999 -999 -999 -999
2007-04-20 08:27:33 51°14.005 2°55.45 -999 -999 -999 -999 -999
2007-04-20 08:27:38 51°14.005 2°55.45 -999 -999 -999 -999 -999
2007-04-20 08:27:43 51°14.005 2°55.45 -999 -999 -999 -999 -999
2007-04-20 08:27:48 51°14.005 2°55.451 -999 -999 -999 -999 -999
2007-04-20 08:27:53 51°14.005 2°55.451 -999 -999 -999 -999 -999
2007-04-20 08:27:58 51°14.005 2°55.451 -999 -999 -999 -999 -999
2007-04-20 08:28:03 51°14.005 2°55.451 -999 -999 -999 -999 -999
2007-04-20 08:28:08 51°14.005 2°55.451 -999 -999 -999 -999 -999
2007-04-20 08:28:13 51°14.005 2°55.451 -999 -999 -999 -999 -999
2007-04-20 08:28:18 51°14.005 2°55.451 -999 -999 -999 -999 -999
2007-04-20 08:28:23 51°14.005 2°55.451 -999 -999 -999 -999 -999
2007-04-20 08:28:28 51°14.005 2°55.451 -999 -999 -999 -999 -999
2007-04-20 08:28:33 51°14.005 2°55.451 -999 -999 -999 -999 -999
2007-04-20 08:28:38 51°14.005 2°55.451 -999 -999 -999 -999 -999
2007-04-20 08:28:43 51°14.005 2°55.45 -999 -999 -999 -999 -999
2007-04-20 08:28:48 51°14.005 2°55.45 -999 -999 -999 -999 -999
2007-04-20 08:28:53 51°14.005 2°55.45 -999 -999 -999 -999 -999
2007-04-20 08:28:58 51°14.005 2°55.45 -999 -999 -999 -999 -999
2007-04-20 08:29:03 51°14.005 2°55.45 -999 -999 -999 -999 -999
2007-04-20 08:29:08 51°14.005 2°55.45 -999 -999 -999 -999 -999
2007-04-20 08:29:13 51°14.005 2°55.45 -999 -999 -999 -999 -999
2007-04-20 08:29:18 51°14.005 2°55.45 -999 -999 -999 -999 -999
2007-04-20 08:29:23 51°14.005 2°55.45 -999 -999 -999 -999 -999
2007-04-20 08:29:28 51°14.005 2°55.45 -999 -999 -999 -999 -999
2007-04-20 08:29:33 51°14.005 2°55.45 -999 -999 -999 -999 -999
2007-04-20 08:29:38 51°14.005 2°55.45 -999 -999 -999 -999 -999
2007-04-20 08:29:43 51°14.005 2°55.45 -999 -999 -999 -999 -999
2007-04-20 08:29:48 51°14.005 2°55.45 -999 -999 -999 -999 -999
2007-04-20 08:29:53 51°14.005 2°55.45 -999 -999 -999 -999 -999
2007-04-20 08:29:58 51°14.005 2°55.45 -999 -999 -999 -999 -999
2007-04-20 08:30:03 51°14.005 2°55.451 -999 -999 -999 -999 -999
2007-04-20 08:30:08 51°14.005 2°55.451 -999 -999 -999 -999 -999
2007-04-20 08:30:13 51°14.005 2°55.451 -999 -999 -999 -999 -999
2007-04-20 08:30:18 51°14.005 2°55.451 -999 -999 -999 -999 -999
2007-04-20 08:30:23 51°14.005 2°55.451 -999 -999 -999 -999 -999
2007-04-20 08:30:28 51°14.005 2°55.451 -999 -999 -999 -999 -999
2007-04-20 08:30:33 51°14.005 2°55.451 -999 -999 -999 -999 -999
2007-04-20 08:30:38 51°14.005 2°55.451 -999 -999 -999 -999 -999
2007-04-20 08:30:43 51°14.005 2°55.451 -999 -999 -999 -999 -999
2007-04-20 08:30:48 51°14.005 2°55.451 -999 -999 -999 -999 -999
2007-04-20 08:30:53 51°14.005 2°55.451 -999 -999 -999 -999 -999
2007-04-20 08:30:58 51°14.005 2°55.451 -999 -999 -999 -999 -999
2007-04-20 08:31:03 51°14.005 2°55.451 -999 -999 -999 -999 -999
2007-04-20 08:31:08 51°14.005 2°55.451 -999 -999 -999 -999 -999
2007-04-20 08:31:13 51°14.005 2°55.451 -999 -999 -999 -999 -999
2007-04-20 08:31:18 51°14.005 2°55.451 -999 -999 -999 -999 -999
2007-04-20 08:31:23 51°14.005 2°55.451 -999 -999 -999 -999 -999
2007-04-20 08:31:28 51°14.005 2°55.451 -999 -999 -999 -999 -999
2007-04-20 08:31:33 51°14.005 2°55.451 -999 -999 -999 -999 -999
2007-04-20 08:31:38 51°14.005 2°55.451 -999 -999 -999 -999 -999
2007-04-20 08:31:43 51°14.005 2°55.451 -999 -999 -999 -999 -999
2007-04-20 08:31:48 51°14.005 2°55.451 -999 -999 -999 -999 -999
2007-04-20 08:31:53 51°14.005 2°55.451 -999 -999 -999 -999 -999
2007-04-20 08:31:58 51°14.005 2°55.451 -999 -999 -999 -999 -999
2007-04-20 08:32:03 51°14.005 2°55.451 -999 -999 -999 -999 -999
2007-04-20 08:32:08 51°14.005 2°55.451 -999 -999 -999 -999 -999
2007-04-20 08:32:13 51°14.005 2°55.451 -999 -999 -999 -999 -999
2007-04-20 08:32:18 51°14.005 2°55.451 -999 -999 -999 -999 -999
2007-04-20 08:32:23 51°14.005 2°55.451 -999 -999 -999 -999 -999
2007-04-20 08:32:28 51°14.005 2°55.451 -999 -999 -999 -999 -999
2007-04-20 08:32:33 51°14.005 2°55.451 -999 -999 -999 -999 -999
2007-04-20 08:32:38 51°14.005 2°55.451 -999 -999 -999 -999 -999
2007-04-20 08:32:43 51°14.005 2°55.451 -999 -999 -999 -999 -999
2007-04-20 08:32:48 51°14.005 2°55.451 -999 -999 -999 -999 -999
2007-04-20 08:32:53 51°14.005 2°55.451 -999 -999 -999 -999 -999
2007-04-20 08:32:58 51°14.005 2°55.451 -999 -999 -999 -999 -999
2007-04-20 08:33:03 51°14.005 2°55.451 -999 -999 -999 -999 -999
2007-04-20 08:33:08 51°14.005 2°55.451 -999 -999 -999 -999 -999
2007-04-20 08:33:13 51°14.005 2°55.451 -999 -999 -999 -999 -999
2007-04-20 08:33:18 51°14.005 2°55.451 -999 -999 -999 -999 -999
2007-04-20 08:33:23 51°14.005 2°55.451 -999 -999 -999 -999 -999
2007-04-20 08:33:28 51°14.005 2°55.451 -999 -999 -999 -999 -999
2007-04-20 08:33:33 51°14.005 2°55.451 -999 -999 -999 -999 -999
2007-04-20 08:33:38 51°14.005 2°55.451 -999 -999 -999 -999 -999
2007-04-20 08:33:43 51°14.005 2°55.451 -999 -999 -999 -999 -999
2007-04-20 08:33:48 51°14.005 2°55.451 -999 -999 -999 -999 -999
2007-04-20 08:33:53 51°14.005 2°55.451 -999 -999 -999 -999 -999
2007-04-20 08:33:58 51°14.005 2°55.451 -999 -999 -999 -999 -999
2007-04-20 08:34:03 51°14.004 2°55.451 -999 -999 -999 -999 -999
2007-04-20 08:34:08 51°14.004 2°55.451 -999 -999 -999 -999 -999
2007-04-20 08:34:13 51°14.004 2°55.451 -999 -999 -999 -999 -999
2007-04-20 08:34:18 51°14.004 2°55.451 -999 -999 -999 -999 -999
2007-04-20 08:34:23 51°14.004 2°55.451 -999 -999 -999 -999 -999
2007-04-20 08:34:28 51°14.004 2°55.451 -999 -999 -999 -999 -999
2007-04-20 08:34:33 51°14.004 2°55.451 -999 -999 -999 -999 -999
2007-04-20 08:34:38 51°14.004 2°55.451 -999 -999 -999 -999 -999
2007-04-20 08:34:43 51°14.004 2°55.451 -999 -999 -999 -999 -999
2007-04-20 08:34:48 51°14.004 2°55.451 -999 -999 -999 -999 -999
2007-04-20 08:34:53 51°14.004 2°55.451 -999 -999 -999 -999 -999
2007-04-20 08:34:58 51°14.004 2°55.451 -999 -999 -999 -999 -999
2007-04-20 08:35:03 51°14.004 2°55.451 -999 -999 -999 -999 -999
2007-04-20 08:35:08 51°14.004 2°55.451 -999 -999 -999 -999 -999
2007-04-20 08:35:13 51°14.004 2°55.451 -999 -999 -999 -999 -999
2007-04-20 08:35:18 51°14.004 2°55.451 -999 -999 -999 -999 -999
2007-04-20 08:35:23 51°14.004 2°55.451 -999 -999 -999 -999 -999
2007-04-20 08:35:28 51°14.004 2°55.451 -999 -999 -999 -999 -999
2007-04-20 08:35:33 51°14.004 2°55.451 -999 -999 -999 -999 -999
2007-04-20 08:35:38 51°14.004 2°55.451 -999 -999 -999 -999 -999
2007-04-20 08:35:43 51°14.005 2°55.452 -999 -999 -999 -999 -999
2007-04-20 08:35:48 51°14.005 2°55.452 -999 -999 -999 -999 -999
2007-04-20 08:35:53 51°14.005 2°55.452 -999 -999 -999 -999 -999
2007-04-20 08:35:58 51°14.005 2°55.452 -999 -999 -999 -999 -999
2007-04-20 08:36:03 51°14.005 2°55.452 -999 -999 -999 -999 -999
2007-04-20 08:36:08 51°14.005 2°55.452 -999 -999 -999 -999 -999
2007-04-20 08:36:13 51°14.005 2°55.452 -999 -999 -999 -999 -999
2007-04-20 08:36:18 51°14.005 2°55.452 -999 -999 -999 -999 -999
2007-04-20 08:36:23 51°14.005 2°55.452 -999 -999 -999 -999 -999
2007-04-20 08:36:28 51°14.005 2°55.452 -999 -999 -999 -999 -999
2007-04-20 08:36:33 51°14.005 2°55.452 -999 -999 -999 -999 -999
2007-04-20 08:36:38 51°14.005 2°55.452 -999 -999 -999 -999 -999
2007-04-20 08:36:43 51°14.005 2°55.452 -999 -999 -999 -999 -999
2007-04-20 08:36:48 51°14.005 2°55.452 -999 -999 -999 -999 -999
2007-04-20 08:36:53 51°14.005 2°55.452 -999 -999 -999 -999 -999
2007-04-20 08:36:58 51°14.005 2°55.452 -999 -999 -999 -999 -999
2007-04-20 08:37:03 51°14.005 2°55.452 -999 -999 -999 -999 -999
2007-04-20 08:37:08 51°14.005 2°55.452 -999 -999 -999 -999 -999
2007-04-20 08:37:13 51°14.005 2°55.452 -999 -999 -999 -999 -999
2007-04-20 08:37:18 51°14.005 2°55.452 -999 -999 -999 -999 -999
2007-04-20 08:37:23 51°14.005 2°55.452 -999 -999 -999 -999 -999
2007-04-20 08:37:28 51°14.005 2°55.452 -999 -999 -999 -999 -999
2007-04-20 08:37:33 51°14.005 2°55.452 -999 -999 -999 -999 -999
2007-04-20 08:37:38 51°14.005 2°55.452 -999 -999 -999 -999 -999
2007-04-20 08:37:43 51°14.005 2°55.452 -999 -999 -999 -999 -999
2007-04-20 08:37:48 51°14.005 2°55.452 -999 -999 -999 -999 -999
2007-04-20 08:37:53 51°14.005 2°55.452 -999 -999 -999 -999 -999
2007-04-20 08:37:58 51°14.005 2°55.452 -999 -999 -999 -999 -999
2007-04-20 08:38:03 51°14.005 2°55.452 -999 -999 -999 -999 -999
2007-04-20 08:38:08 51°14.005 2°55.452 -999 -999 -999 -999 -999
2007-04-20 08:38:13 51°14.005 2°55.452 -999 -999 -999 -999 -999
2007-04-20 08:38:18 51°14.005 2°55.452 -999 -999 -999 -999 -999
2007-04-20 08:38:23 51°14.005 2°55.452 -999 -999 -999 -999 -999
2007-04-20 08:38:28 51°14.005 2°55.452 -999 -999 -999 -999 -999
2007-04-20 08:38:33 51°14.005 2°55.452 -999 -999 -999 -999 -999
2007-04-20 08:38:38 51°14.005 2°55.452 -999 -999 -999 -999 -999
2007-04-20 08:38:43 51°14.005 2°55.452 -999 -999 -999 -999 -999
2007-04-20 08:38:48 51°14.005 2°55.452 -999 -999 -999 -999 -999
2007-04-20 08:38:53 51°14.005 2°55.452 -999 -999 -999 -999 -999
2007-04-20 08:38:58 51°14.005 2°55.452 -999 -999 -999 -999 -999
2007-04-20 08:39:03 51°14.005 2°55.452 -999 -999 -999 -999 -999
2007-04-20 08:39:08 51°14.005 2°55.452 -999 -999 -999 -999 -999
2007-04-20 08:39:13 51°14.005 2°55.452 -999 -999 -999 -999 -999
2007-04-20 08:39:18 51°14.005 2°55.452 -999 -999 -999 -999 -999
2007-04-20 08:39:23 51°14.005 2°55.452 -999 -999 -999 -999 -999
2007-04-20 08:39:28 51°14.005 2°55.452 -999 -999 -999 -999 -999
2007-04-20 08:39:33 51°14.005 2°55.452 -999 -999 -999 -999 -999
2007-04-20 08:39:38 51°14.005 2°55.452 -999 -999 -999 -999 -999
2007-04-20 08:39:43 51°14.005 2°55.452 -999 -999 -999 -999 -999
2007-04-20 08:39:48 51°14.005 2°55.451 -999 -999 -999 -999 -999
2007-04-20 08:39:53 51°14.005 2°55.451 -999 -999 -999 -999 -999
2007-04-20 08:39:58 51°14.005 2°55.451 -999 -999 -999 -999 -999
2007-04-20 08:40:03 51°14.005 2°55.451 -999 -999 -999 -999 -999
2007-04-20 08:40:08 51°14.005 2°55.451 -999 -999 -999 -999 -999
2007-04-20 08:40:13 51°14.005 2°55.451 -999 -999 -999 -999 -999
2007-04-20 08:40:18 51°14.005 2°55.451 -999 -999 -999 -999 -999
2007-04-20 08:40:23 51°14.005 2°55.451 -999 -999 -999 -999 -999
2007-04-20 08:40:28 51°14.005 2°55.451 -999 -999 -999 -999 -999
2007-04-20 08:40:33 51°14.005 2°55.451 -999 -999 -999 -999 -999
2007-04-20 08:40:38 51°14.005 2°55.451 -999 -999 -999 -999 -999
2007-04-20 08:40:43 51°14.005 2°55.451 -999 -999 -999 -999 -999
2007-04-20 08:40:48 51°14.005 2°55.451 -999 -999 -999 -999 -999
2007-04-20 08:40:53 51°14.006 2°55.451 -999 -999 -999 -999 -999
2007-04-20 08:40:58 51°14.006 2°55.451 -999 -999 -999 -999 -999
2007-04-20 08:41:03 51°14.006 2°55.451 -999 -999 -999 -999 -999
2007-04-20 08:41:08 51°14.006 2°55.452 -999 -999 -999 -999 -999
2007-04-20 08:41:13 51°14.006 2°55.452 -999 -999 -999 -999 -999
2007-04-20 08:41:18 51°14.006 2°55.452 -999 -999 -999 -999 -999
2007-04-20 08:41:23 51°14.006 2°55.452 -999 -999 -999 -999 -999
2007-04-20 08:41:28 51°14.006 2°55.452 -999 -999 -999 -999 -999
2007-04-20 08:41:33 51°14.006 2°55.452 -999 -999 -999 -999 -999
2007-04-20 08:41:38 51°14.006 2°55.452 -999 -999 -999 -999 -999
2007-04-20 08:41:43 51°14.006 2°55.452 -999 -999 -999 -999 -999